Regional Weather Roundup
Issued by NWS Green Bay, WI

Home | Current Version | Previous Version | Graphics & Text | Print | Product List | Glossary Off
Versions: 1 2 3 4 5 6 7 8 9 10 11 12 13 14 15 16 17 18 19 20 21 22 23 24 25 26 27 28 29 30 31 32 33 34 35 36 37 38 39 40 41 42 43 44 45 46 47 48 49 50

513
ASUS43 KGRB 162111
RWRGRB

NORTH-CENTRAL AND NORTHEAST WISCONSIN REGIONAL WEATHER ROUNDUP
NATIONAL WEATHER SERVICE GREEN BAY WI
300 PM CST MON JAN 16 2017

WIZ005-009-010>012-018-019-162200-
NORTH CENTRAL WISCONSIN

CITY           SKY/WX    TMP DP  RH WIND       PRES   REMARKS
IRONWOOD       CLOUDY    37  20  50 E6        30.06F
MANITOWISH WTR CLOUDY    29  17  59 S3        30.06S
ARBOR VITAE    CLOUDY    32  22  67 CALM      30.07S
EAGLE RIVER    CLOUDY    33  22  64 S5        30.07S
LAND O LAKES   CLOUDY    34  21  60 CALM      30.08S
RHINELANDER    CLOUDY    31  19  61 CALM      30.09S
PHILLIPS       CLOUDY    30  20  65 SE3       30.07F
ANTIGO         CLOUDY    24  14  66 CALM      30.10S
TOMAHAWK       CLOUDY    32  17  54 CALM      30.09S
MERRILL        CLOUDY    29  15  56 CALM        N/A
$$

WIZ013-073-162200-
NORTHEAST WISCONSIN

CITY           SKY/WX    TMP DP  RH WIND       PRES   REMARKS
IRON MOUNTAIN  CLOUDY    32  16  51 E6        30.10R
MARINETTE      NOT AVBL
OCONTO         CLOUDY    30  17  56 SE3       30.15S
$$

WIZ017-030-035>037-045-162200-
CENTRAL WISCONSIN

CITY           SKY/WX    TMP DP  RH WIND       PRES   REMARKS
MEDFORD        CLOUDY    30  16  55 NE5       30.07S
WAUSAU         CLOUDY    30  15  53 CALM      30.09S
MOSINEE        CLOUDY    30  19  64 NE5       30.10F
MARSHFIELD     CLOUDY    27  15  61 E8        30.07F
WISC RAPIDS    MIX PCPN  30  25  81 E5        30.10F
STEVENS POINT  MIX PCPN  29  19  64 NE5       30.10S
WAUPACA        LGT RAIN  33  24  68 CALM      30.13S
SHAWANO        CLOUDY    28  20  72 CALM      30.14S
CLINTONVILLE   CLOUDY    30  18  59 CALM      30.14S
WAUTOMA        LGT SNOW  30  27  86 E9        30.11F FOG
$$

WIZ038-039-048-051-162200-
FOX VALLEY

CITY           SKY/WX    TMP DP  RH WIND       PRES   REMARKS
NWS GREEN BAY  CLOUDY    34  23  64 NE7       30.15S
APPLETON       DRIZZLE   32  19  59 E3        30.11F
OSHKOSH        MIX PCPN  31  25  78 NE5       30.12F
FOND DU LAC    LGT RAIN  34  28  79 E7        30.11F
$$

WIZ022-050-052-162200-
EAST CENTRAL WISCONSIN

CITY           SKY/WX    TMP DP  RH WIND       PRES   REMARKS
EPHRAIM        FAIR      33  18  54 CALM      30.14S
WASHINGTON ISL FAIR      29  21  71 CALM      30.16S
STURGEON BAY   CLOUDY    34  18  52 S3        30.16F
MANITOWOC      MIX PCPN  32  25  75 CALM      30.16F
SHEBOYGAN      LGT RAIN  33  29  85 E7        30.14S FOG
$$

LMZ563-521-522-541>543-162200-
LAKESHORE

STATION/POSITION TIME  TEMP    WIND        PRES    VSBY  WAVE
                       AIR SEA DIR/SP/G                  HT/PER
                 (UTC) (F)     (DEG/KT/KT) (MB)    (MI)  (FT/S)
SHEBOYGAN LKSHOR 2100   32      30/  6/  6 1021.4F
KEWAUNEE LKSHORE 2048   32      70/  1/  1 1020.8F
NORTHPORT PIER   2040   28      CALM  /  3 1021.3S
SISTER BAY LKSHO 2050   29      10/  6/  6   N/A
MENOMINEE LKSHOR 2048          230/  3/  5 1020.0F
$$




USA.gov is the U.S. government's official web portal to all federal, state and local government web resources and services.